User: anonymous   Login
Location: Cz?stochówka
(50.8142°N, 19.0915°E)
Time: 03:59:14
(UTC+00:00)
Language:

BREEZE M DEB (TANK) - Orbit

View from above orbital plane
View from above orbital plane
View from above satellite
View from above satellite

Ground track
Ground track

The orbit is defined by the following mean orbital elements,

1 28359U          26066.25046867 +.00000000 +00000-0 +96280-3 0 00006
2 28359  49.5291  26.6138 4500829 126.4938 283.9819  6.50571445    03
Epoch (UTC): 07 March 2026 06:00:40
Eccentricity: 0.4500829
inclination: 49.5291°
perigee height: 287 km
apogee height: 11198 km
right ascension of ascending node: 26.6138°
argument of perigee: 126.4938°
revolutions per day: 6.50571445
mean anomaly at epoch: 283.9819°

The dashed part of the orbit path shows where the satellite is in the earth's shadow,  

DLR